Location: Casale Fiammingo
(41.6167°N, 12.7667°E)
Time: 18:15:10
(UTC+00:00)

Daily predictions for brighter satellites

Satellite Brightness Start Highest point End
(mag) Time Altitude Azimuth Time Altitude Azimuth Time Altitude Azimuth
YAOGAN 1 3.2 17:14:58 10° SE 17:18:51 33° ENE 17:22:44 10° N
Okean-O 3.3 17:15:50 10° SE 17:19:49 34° ENE 17:23:48 10° N
Timation 1 Rocket 4.4 17:14:26 10° NNW 17:20:20 59° ENE 17:26:12 10° SE
Helios 1A Rocket 4.2 17:17:21 10° ESE 17:20:25 21° ENE 17:23:29 10° NNE
Cosmos 1500 Rocket 3.5 17:16:08 10° S 17:20:26 65° E 17:24:45 10° NNE
FALCON 9 DEB 3.1 17:17:48 10° SW 17:20:56 58° SE 17:24:05 10° ENE
COSMO-SKYMED 1 2.6 17:16:43 10° NNE 17:21:05 87° E 17:25:25 10° SSW
Cosmos 1980 Rocket 2.5 17:16:22 10° S 17:21:41 45° ESE 17:27:06 10° NE
Cosmos 1515 Rocket 3.7 17:18:48 10° N 17:23:13 82° W 17:27:38 10° S
SL-4 R/B 2.3 17:19:53 10° WSW 17:23:27 52° NNW 17:26:51 10° NE
FALCON 9 DEB 2.9 17:26:16 10° SW 17:29:26 90° SE 17:32:36 10° NE
Sich 1 3.8 17:26:05 10° SSE 17:29:55 31° E 17:33:48 10° NNE
Lacrosse 5 rocket 1.8 17:26:27 10° NW 17:30:45 47° NE 17:34:49 10° ESE
BREEZE-M DEB (TANK) 4.3 17:28:37 10° S 17:31:42 34° ESE 17:40:12 10° ENE
Cosmos 2322 Rocket 3.9 17:30:41 10° ESE 17:31:46 11° E 17:32:51 10° E
Cosmos 1452 Rocket 3.8 17:26:35 10° SSW 17:31:49 75° WNW 17:37:05 10° NNE
Cosmos 44 3.7 17:30:09 10° NNW 17:35:31 56° NE 17:40:47 10° SE
Cosmos 2082 3.6 17:30:50 10° NNW 17:36:29 77° ENE 17:42:06 10° SSE
SJ-11-01 4.4 17:33:16 10° SSE 17:37:46 50° ENE 17:42:18 10° N
Cosmos 724 4.4 17:32:30 10° SSW 17:38:29 73° ESE 17:44:38 10° NE
CZ-4B R/B 2.1 17:35:54 10° N 17:38:52 50° WNW 17:41:48 10° SSW
Cosmos 1867 3.7 17:34:14 10° SSW 17:39:31 56° ESE 17:44:52 10° NE
Cosmos 1707 Rocket 4.4 17:39:29 10° NNE 17:43:20 28° ENE 17:47:07 10° SE
Cosmos 1741 Rocket 4.0 17:39:30 10° NNW 17:44:52 83° ENE 17:50:10 10° SSE
Cosmos 1633 Rocket 4.1 17:42:28 10° SE 17:45:59 24° E 17:49:31 10° NE
Cosmos 1697 Rocket 3.3 17:40:24 10° SW 17:45:59 60° WNW 17:51:35 10° NNE
Cosmos 1437 3.7 17:45:49 10° NNE 17:48:10 22° ENE 17:49:16 18° ESE
Cosmos 1110 Rocket 4.0 17:43:42 10° S 17:48:59 73° ESE 17:54:18 10° NNE
RESURS DK-1 4.0 17:46:30 10° NW 17:50:21 38° WSW 17:54:10 10° S
USA 234 3.3 17:43:48 10° NE 17:50:23 90° SE 17:56:56 10° SW
SL-16 R/B 3.3 17:46:34 10° SSE 17:50:46 22° E 17:54:57 10° NE
ERS-2 2.0 17:47:21 10° NNE 17:50:59 66° ESE 17:54:36 10° S
IRS-1C Rocket 4.2 17:45:45 10° SSE 17:51:00 81° WSW 17:56:19 10° NNW
DMSP B5D1-3 4.5 17:52:30 10° NNE 17:57:39 70° ESE 18:02:46 10° S
Cosmos 2369 4.3 17:52:15 10° SW 17:57:49 61° WNW 18:03:28 10° NNE
USA 305 3.1 17:55:07 10° WSW 17:59:23 70° NW 18:03:07 13° NE
PSLV R/B 4.0 17:55:45 10° NNE 17:59:54 83° WNW 18:03:57 10° SSW
SAR-Lupe-4 3.4 17:56:36 10° NNE 18:00:12 79° ESE 18:03:46 10° S
Cosmos 2154 Rocket 4.5 17:56:42 10° SSE 18:02:15 35° E 18:07:48 10° NNE
Ariane Rocket 4.2 18:03:13 20° E 18:04:12 21° ENE 18:07:55 10° NNE
CZ-4 R/B 1.8 18:01:11 10° S 18:04:58 60° W 18:08:48 10° NNW
SeaSat 1 2.9 18:01:43 10° NNE 18:06:37 64° WNW 18:11:28 10° SW
USA 307 3.2 18:02:57 10° WSW 18:07:12 64° NW 18:10:34 16° NE
Cosmos 2263 Rocket 2.5 18:05:01 10° NNW 18:10:21 45° ENE 18:14:09 18° SE
Cosmos 2074 Rocket 3.9 18:04:56 10° S 18:11:08 66° E 18:17:22 10° NNE
USA 306 3.5 18:09:24 10° WSW 18:13:36 55° NW 18:16:44 17° NE
FALCON 9 DEB 4.0 18:10:36 10° WSW 18:13:37 40° NNW 18:15:23 20° NNE
USA 308 3.5 18:13:18 10° WSW 18:17:29 54° NW 18:20:26 18° NE
Cosmos 1805 Rocket 4.4 18:14:50 10° SSW 18:19:05 53° W 18:23:24 10° N
ERBS 3.4 18:18:48 10° S 18:21:02 27° SSE 18:21:02 27° SSE
Cosmos 2184 Rocket 3.9 18:17:38 10° S 18:23:46 79° E 18:29:58 10° N
H-2A R/B 3.0 18:19:21 10° S 18:24:35 52° W 18:29:55 10° NNW
ARGOS 3.4 18:19:58 10° S 18:25:22 74° WSW 18:30:49 10° NNW
Meteor 1-27 Rocket 4.3 18:21:47 10° NNW 18:27:12 58° W 18:32:36 10° S
SJ-6B 3.7 18:28:38 33° NE 18:28:38 33° NE 18:31:49 10° N
Cosmos 2278 4.4 18:24:42 10° SW 18:30:14 54° WNW 18:35:50 10° NNE
SL-08 RB Rocket 3.6 18:25:47 10° SSE 18:30:15 87° WSW 18:34:48 10° NNW
Meteor 1-25 Rocket 4.2 18:26:39 10° S 18:32:28 80° E 18:38:14 10° NNE
Cosmos 1271 Rocket 2.5 18:29:11 10° N 18:32:56 86° ENE 18:35:17 22° S
GP-B 3.4 18:33:08 43° ENE 18:33:08 43° ENE 18:37:09 10° NNE
COSMOS 2455 2.9 18:27:52 10° NNW 18:33:55 79° WSW 18:39:47 11° SSE
Meteor 1-18 Rocket 4.5 18:29:13 10° N 18:34:59 50° ENE 18:38:04 26° SE
Cosmos 1461 3.2 18:31:24 10° SSW 18:36:01 59° ESE 18:37:22 42° ENE
MetOp-A 4.1 18:32:13 18° SSE 18:36:04 59° ENE 18:41:20 10° N
Cosmos 1602 3.5 18:32:58 10° S 18:36:49 72° E 18:40:42 10° NNE
CZ-2C R/B 2.9 18:33:44 10° N 18:39:17 73° WNW 18:44:40 10° SSW
Okean 1 3.8 18:35:45 10° N 18:38:49 42° NE 18:38:49 42° NE
Cosmos 1666 Rocket 3.8 18:36:38 10° SSW 18:40:58 69° W 18:45:18 10° N
Meteor 2-12 Rocket 4.3 18:38:38 10° S 18:44:34 61° E 18:50:32 10° NNE
Cosmos 1862 Rocket 3.5 18:40:13 10° N 18:44:42 69° E 18:45:36 53° SE
CSL-04 Rocket 4.2 18:40:32 10° S 18:46:01 60° W 18:51:30 10° NNW
BREEZE-M DEB (TANK) 3.7 18:44:09 10° NW 18:46:16 24° N 18:46:16 24° N
Cosmos 2341 Rocket 4.3 18:41:01 10° SSE 18:46:53 41° E 18:52:45 10° NNE
Gbstr 26 Del rocket 3.9 18:42:50 10° WSW 18:47:13 53° NNW 18:49:30 30° NE
Cosmos 1844 Rocket 4.2 18:44:00 10° N 18:47:04 20° NE 18:47:04 20° NE
Cosmos 1486 Rocket 4.2 18:45:21 10° N 18:50:25 49° ENE 18:50:25 49° ENE
SL-4 R/B 3.9 19:01:07 10° NW 19:03:19 17° NNW 19:03:19 17° NNW
Cosmos 1980 Rocket 4.1 19:01:04 10° WSW 19:05:53 28° NW 19:10:44 10° N
Lacrosse 5 rocket 3.3 19:06:11 10° WNW 19:09:40 24° WSW 19:11:00 20° SSW
Cosmos 2322 Rocket 2.0 19:09:16 10° SSW 19:14:51 85° ESE 19:15:03 83° ENE
Cosmos 968 Rocket 3.5 19:14:04 10° NNW 19:19:11 80° WNW 19:19:11 80° WNW
USA 234 4.5 19:29:24 21° NNE 19:32:56 35° NNW 19:38:43 10° W
SL-16 R/B 2.8 19:28:53 10° SW 19:34:25 54° WNW 19:37:13 28° N
Resurs 01 Rocket 4.3 19:44:37 11° N 19:44:37 11° N 19:44:50 10° N
Ariane Rocket 3.8 19:43:24 48° WNW 19:43:24 48° WNW 19:47:44 10° NNW
Cosmos 2263 Rocket 4.0 19:49:29 10° NW 19:53:57 25° WSW 19:55:56 21° SW
